Location: Clifton Park
(41.4873°N, 81.8024°W)
Time: 10:22:14
(UTC+00:00)

Cosmos 2082 - Pass Details

Date: 21 January 2020
Orbit: 833 x 856 km, 71.0° (Epoch: 16 February)

Event Time Altitude Azimuth Distance (km) Brightness Sun altitude
Exits shadow 10:15:55 82° 166° (SSE) 863 3.6 -28.3°
Drops below altitude 10° 10:21:22 10° 159° (SSE) 2,475 6.4 -27.3°
Sets 10:23:48 0° 159° (SSE) 3,409 7.2 -26.8°
